Time,TemperatureF,DewpointF,PressureIn,WindDirection,WindDirectionDegrees,WindSpeedMPH,WindSpeedGustMPH,Humidity,HourlyPrecipIn,Conditions,Clouds,dailyrainin,SolarRadiationWatts/m^2,SoftwareType,DateUTC
2013-03-21 00:00:00,62.7,56.1,30.00,ESE,112,1.0,5.0,79,0.00,,,0.00,0.00,VWS V14.00,2013-03-21 05:00:00,
2013-03-21 00:15:00,62.3,55.4,29.99,SE,135,1.0,4.0,78,0.00,,,0.00,0.00,VWS V14.00,2013-03-21 05:15:00,
2013-03-21 00:30:00,62.1,55.5,29.98,ESE,112,1.0,3.0,79,0.00,,,0.00,0.00,VWS V14.00,2013-03-21 05:30:00,
2013-03-21 00:45:00,62.8,55.1,29.98,ESE,112,2.0,7.0,76,0.00,,,0.00,0.00,VWS V14.00,2013-03-21 05:45:00,
2013-03-21 01:00:00,63.3,54.9,29.97,ESE,112,2.0,6.0,74,0.00,,,0.00,0.00,VWS V14.00,2013-03-21 06:00:00,
2013-03-21 01:15:00,63.3,54.9,29.96,ESE,112,1.0,6.0,74,0.00,,,0.00,0.00,VWS V14.00,2013-03-21 06:15:00,
2013-03-21 01:30:00,63.3,54.9,29.96,ESE,112,2.0,5.0,74,0.00,,,0.00,0.00,VWS V14.00,2013-03-21 06:30:00,
2013-03-21 01:45:00,63.5,54.7,29.96,ESE,112,2.0,6.0,73,0.00,,,0.00,0.00,VWS V14.00,2013-03-21 06:45:00,
2013-03-21 02:00:00,63.9,54.3,29.95,SE,135,3.0,10.0,71,0.00,,,0.00,0.00,VWS V14.00,2013-03-21 07:00:00,
2013-03-21 02:15:00,63.9,55.1,29.95,ESE,112,2.0,6.0,73,0.00,,,0.00,0.00,VWS V14.00,2013-03-21 07:15:00,
2013-03-21 02:30:00,64.0,55.2,29.94,ESE,112,2.0,7.0,73,0.00,,,0.00,0.00,VWS V14.00,2013-03-21 07:30:00,
2013-03-21 02:45:00,63.8,55.4,29.93,SE,135,1.0,5.0,74,0.00,,,0.00,0.00,VWS V14.00,2013-03-21 07:45:00,
2013-03-21 03:00:00,63.8,56.1,29.93,SE,135,1.0,5.0,76,0.00,,,0.00,0.00,VWS V14.00,2013-03-21 08:00:00,
2013-03-21 03:15:00,63.8,56.1,29.93,ESE,112,1.0,4.0,76,0.00,,,0.00,0.00,VWS V14.00,2013-03-21 08:15:00,
2013-03-21 03:38:00,64.2,56.1,29.93,SSE,158,2.0,5.0,75,0.00,,,0.00,0.00,VWS V14.00,2013-03-21 08:38:00,
2013-03-21 03:45:00,64.7,56.6,29.92,SSE,163,3.0,6.0,75,0.00,,,0.00,0.00,VWS V14.00,2013-03-21 08:45:00,
2013-03-21 04:01:00,64.6,56.5,29.92,South,179,5.0,9.0,75,0.00,,,0.00,0.00,VWS V14.00,2013-03-21 09:01:00,
2013-03-21 04:15:00,64.7,56.6,29.91,SE,133,1.0,6.0,75,0.00,,,0.00,0.00,VWS V14.00,2013-03-21 09:15:00,
2013-03-21 04:30:00,64.3,56.6,29.90,SE,142,1.0,5.0,76,0.00,,,0.00,0.00,VWS V14.00,2013-03-21 09:30:00,
2013-03-21 04:45:00,64.3,56.6,29.89,South,177,2.0,7.0,76,0.00,,,0.00,0.00,VWS V14.00,2013-03-21 09:45:00,
2013-03-21 05:00:00,64.7,56.6,29.89,SSE,158,3.0,9.0,75,0.00,,,0.00,0.00,VWS V14.00,2013-03-21 10:00:00,
2013-03-21 05:15:00,64.6,56.5,29.89,SSE,158,1.0,7.0,75,0.00,,,0.00,0.00,VWS V14.00,2013-03-21 10:15:00,
2013-03-21 05:30:00,64.8,56.7,29.89,ESE,112,2.0,9.0,75,0.00,,,0.00,0.00,VWS V14.00,2013-03-21 10:30:00,
2013-03-21 05:45:00,64.7,56.6,29.89,SE,135,2.0,7.0,75,0.00,,,0.00,0.00,VWS V14.00,2013-03-21 10:45:00,
2013-03-21 06:00:00,64.3,56.6,29.87,ESE,112,2.0,6.0,76,0.00,,,0.00,0.00,VWS V14.00,2013-03-21 11:00:00,
2013-03-21 06:15:00,64.4,56.3,29.88,ESE,112,3.0,7.0,75,0.00,,,0.00,0.00,VWS V14.00,2013-03-21 11:15:00,
2013-03-21 06:30:00,64.3,56.2,29.88,ESE,112,2.0,6.0,75,0.00,,,0.00,0.00,VWS V14.00,2013-03-21 11:30:00,
2013-03-21 06:45:00,64.1,56.4,29.89,ESE,112,2.0,5.0,76,0.00,,,0.00,0.00,VWS V14.00,2013-03-21 11:45:00,
2013-03-21 07:00:00,64.1,56.8,29.90,ESE,112,1.0,4.0,77,0.00,,,0.00,0.00,VWS V14.00,2013-03-21 12:00:00,
2013-03-21 07:15:00,64.4,57.0,29.90,ESE,112,2.0,5.0,77,0.00,,,0.00,0.00,VWS V14.00,2013-03-21 12:15:00,
2013-03-21 07:30:00,64.4,56.7,29.90,ESE,112,2.0,5.0,76,0.00,,,0.00,0.00,VWS V14.00,2013-03-21 12:30:00,
2013-03-21 07:45:00,64.1,57.1,29.90,ESE,112,2.0,5.0,78,0.00,,,0.00,13.00,VWS V14.00,2013-03-21 12:45:00,
2013-03-21 08:00:00,64.2,57.2,29.90,ESE,112,2.0,6.0,78,0.00,,,0.00,36.00,VWS V14.00,2013-03-21 13:00:00,
2013-03-21 08:15:00,65.0,58.0,29.89,East,90,2.0,6.0,78,0.00,,,0.00,74.00,VWS V14.00,2013-03-21 13:15:00,
2013-03-21 08:30:00,66.4,57.9,29.89,ESE,112,3.0,10.0,74,0.00,,,0.00,152.00,VWS V14.00,2013-03-21 13:30:00,
2013-03-21 08:45:00,67.3,57.2,29.89,ESE,112,4.0,10.0,70,0.00,,,0.00,213.00,VWS V14.00,2013-03-21 13:45:00,
2013-03-21 09:00:00,67.9,57.8,29.88,ESE,112,4.0,11.0,70,0.00,,,0.00,259.00,VWS V14.00,2013-03-21 14:00:00,
2013-03-21 09:15:00,68.6,58.4,29.88,ESE,112,4.0,13.0,70,0.00,,,0.00,318.00,VWS V14.00,2013-03-21 14:15:00,
2013-03-21 09:30:00,69.3,58.7,29.88,ESE,112,4.0,12.0,69,0.00,,,0.00,379.00,VWS V14.00,2013-03-21 14:30:00,
2013-03-21 09:45:00,69.7,58.7,29.88,SSE,158,5.0,16.0,68,0.00,,,0.00,436.00,VWS V14.00,2013-03-21 14:45:00,
2013-03-21 10:00:00,70.4,58.5,29.88,SSE,158,5.0,13.0,66,0.00,,,0.00,507.00,VWS V14.00,2013-03-21 15:00:00,
2013-03-21 10:15:00,70.1,59.1,29.87,ESE,112,5.0,13.0,68,0.00,,,0.00,443.00,VWS V14.00,2013-03-21 15:15:00,
2013-03-21 10:30:00,70.7,59.2,29.87,East,90,6.0,16.0,67,0.00,,,0.00,486.00,VWS V14.00,2013-03-21 15:30:00,
2013-03-21 10:45:00,70.7,59.6,29.86,ESE,112,6.0,16.0,68,0.00,,,0.00,459.00,VWS V14.00,2013-03-21 15:45:00,
2013-03-21 11:00:00,70.3,59.7,29.85,ESE,112,7.0,16.0,69,0.00,,,0.00,402.00,VWS V14.00,2013-03-21 16:00:00,
2013-03-21 11:15:00,71.8,60.7,29.85,ESE,112,7.0,15.0,68,0.00,,,0.00,677.00,VWS V14.00,2013-03-21 16:15:00,
2013-03-21 11:30:00,72.8,61.2,29.85,SE,135,7.0,15.0,67,0.00,,,0.00,785.00,VWS V14.00,2013-03-21 16:30:00,
2013-03-21 11:45:00,72.2,61.1,29.85,SSE,158,5.0,12.0,68,0.00,,,0.00,501.00,VWS V14.00,2013-03-21 16:45:00,
2013-03-21 12:00:00,72.1,61.0,29.85,SE,135,6.0,15.0,68,0.00,,,0.00,440.00,VWS V14.00,2013-03-21 17:00:00,
2013-03-21 12:15:00,71.7,61.4,29.84,SE,135,7.0,15.0,70,0.00,,,0.00,462.00,VWS V14.00,2013-03-21 17:15:00,
2013-03-21 12:30:00,73.1,62.7,29.83,ESE,112,6.0,16.0,70,0.00,,,0.00,756.00,VWS V14.00,2013-03-21 17:30:00,
2013-03-21 12:45:00,73.3,62.9,29.81,ESE,112,7.0,17.0,70,0.00,,,0.00,896.00,VWS V14.00,2013-03-21 17:45:00,
2013-03-21 13:00:00,72.7,62.4,29.81,SE,135,6.0,14.0,70,0.00,,,0.00,501.00,VWS V14.00,2013-03-21 18:00:00,
2013-03-21 13:15:00,72.4,62.9,29.80,SE,135,6.0,16.0,72,0.00,,,0.00,426.00,VWS V14.00,2013-03-21 18:15:00,
2013-03-21 13:30:00,72.1,62.6,29.79,SSE,158,5.0,13.0,72,0.00,,,0.00,332.00,VWS V14.00,2013-03-21 18:30:00,
2013-03-21 13:45:00,71.8,63.1,29.78,SE,135,6.0,13.0,74,0.00,,,0.00,375.00,VWS V14.00,2013-03-21 18:45:00,
2013-03-21 14:00:00,71.8,62.7,29.77,SSE,158,5.0,12.0,73,0.00,,,0.00,326.00,VWS V14.00,2013-03-21 19:00:00,
2013-03-21 14:15:00,71.8,63.5,29.76,ESE,112,4.0,13.0,75,0.00,,,0.00,301.00,VWS V14.00,2013-03-21 19:15:00,
2013-03-21 14:30:00,71.6,63.6,29.75,SSE,158,5.0,14.0,76,0.00,,,0.00,281.00,VWS V14.00,2013-03-21 19:30:00,
2013-03-21 14:45:00,71.9,63.2,29.73,South,180,5.0,14.0,74,0.00,,,0.00,194.00,VWS V14.00,2013-03-21 19:45:00,
2013-03-21 15:00:00,71.9,63.2,29.72,SSE,158,6.0,15.0,74,0.00,,,0.00,174.00,VWS V14.00,2013-03-21 20:00:00,
2013-03-21 15:15:00,71.9,63.2,29.72,SSE,158,5.0,15.0,74,0.00,,,0.00,197.00,VWS V14.00,2013-03-21 20:15:00,
2013-03-21 15:30:00,71.7,63.4,29.71,SSE,158,6.0,16.0,75,0.00,,,0.00,201.00,VWS V14.00,2013-03-21 20:30:00,
2013-03-21 15:45:00,71.9,63.5,29.70,SSE,158,6.0,13.0,75,0.00,,,0.00,222.00,VWS V14.00,2013-03-21 20:45:00,
2013-03-21 16:00:00,72.0,63.7,29.70,SSE,158,4.0,12.0,75,0.00,,,0.00,150.00,VWS V14.00,2013-03-21 21:00:00,
2013-03-21 16:15:00,71.7,63.7,29.68,SSE,158,5.0,16.0,76,0.00,,,0.00,153.00,VWS V14.00,2013-03-21 21:15:00,
2013-03-21 16:30:00,71.9,64.3,29.68,SSE,158,5.0,13.0,77,0.00,,,0.00,185.00,VWS V14.00,2013-03-21 21:30:00,
2013-03-21 16:45:00,71.7,64.1,29.68,South,180,6.0,13.0,77,0.00,,,0.00,185.00,VWS V14.00,2013-03-21 21:45:00,
2013-03-21 17:00:00,71.5,63.9,29.67,SSE,158,5.0,14.0,77,0.00,,,0.00,142.00,VWS V14.00,2013-03-21 22:00:00,
2013-03-21 17:15:00,71.2,64.4,29.66,SSE,158,5.0,14.0,79,0.00,,,0.00,131.00,VWS V14.00,2013-03-21 22:15:00,
2013-03-21 17:30:00,71.0,64.2,29.67,SSE,158,6.0,13.0,79,0.00,,,0.00,91.00,VWS V14.00,2013-03-21 22:30:00,
2013-03-21 17:45:00,70.6,64.1,29.67,SSE,158,5.0,13.0,80,0.00,,,0.00,57.00,VWS V14.00,2013-03-21 22:45:00,
2013-03-21 18:00:00,70.5,64.4,29.67,SSE,158,4.0,12.0,81,0.00,,,0.00,28.00,VWS V14.00,2013-03-21 23:00:00,
2013-03-21 18:15:00,70.3,64.2,29.67,SSE,158,4.0,10.0,81,0.00,,,0.00,32.00,VWS V14.00,2013-03-21 23:15:00,
2013-03-21 18:30:00,70.2,64.4,29.67,SSE,158,4.0,11.0,82,0.00,,,0.00,26.00,VWS V14.00,2013-03-21 23:30:00,
2013-03-21 18:45:00,70.0,64.6,29.67,SSE,158,4.0,12.0,83,0.00,,,0.00,13.00,VWS V14.00,2013-03-21 23:45:00,
2013-03-21 19:00:00,70.0,64.6,29.66,SSE,158,4.0,13.0,83,0.00,,,0.00,14.00,VWS V14.00,2013-03-22 00:00:00,
2013-03-21 19:18:00,69.9,64.8,29.66,SSE,158,5.0,10.0,84,0.00,,,0.00,12.00,VWS V14.00,2013-03-22 00:18:00,
2013-03-21 19:45:00,69.8,65.1,29.65,East,98,2.0,11.0,85,0.00,,,0.00,0.00,VWS V14.00,2013-03-22 00:45:00,
2013-03-21 20:00:00,69.7,65.0,29.65,SSE,154,2.0,12.0,85,0.00,,,0.00,0.00,VWS V14.00,2013-03-22 01:00:00,
2013-03-21 20:15:00,69.7,64.7,29.65,SE,135,4.0,14.0,84,0.00,,,0.00,0.00,VWS V14.00,2013-03-22 01:15:00,
2013-03-21 20:30:00,69.6,64.6,29.65,SSE,158,5.0,10.0,84,0.00,,,0.00,0.00,VWS V14.00,2013-03-22 01:30:00,
2013-03-21 20:45:00,69.5,64.8,29.65,SSE,158,4.0,10.0,85,0.00,,,0.00,0.00,VWS V14.00,2013-03-22 01:45:00,
2013-03-21 21:00:00,69.4,64.7,29.65,SSE,158,5.0,11.0,85,0.00,,,0.00,0.00,VWS V14.00,2013-03-22 02:00:00,
2013-03-21 21:15:00,69.3,64.9,29.67,SSE,158,4.0,11.0,86,0.00,,,0.00,0.00,VWS V14.00,2013-03-22 02:15:00,
2013-03-21 21:30:00,69.5,65.1,29.66,SSE,158,5.0,12.0,86,0.00,,,0.00,0.00,VWS V14.00,2013-03-22 02:30:00,
2013-03-21 21:45:00,69.5,65.1,29.66,SSE,158,5.0,16.0,86,0.00,,,0.00,0.00,VWS V14.00,2013-03-22 02:45:00,
2013-03-21 22:00:00,69.5,65.5,29.67,SSE,158,3.0,10.0,87,0.00,,,0.00,0.00,VWS V14.00,2013-03-22 03:00:00,
2013-03-21 22:15:00,69.6,65.2,29.67,South,180,4.0,10.0,86,0.00,,,0.00,0.00,VWS V14.00,2013-03-22 03:15:00,
2013-03-21 22:30:00,69.7,65.3,29.67,SSE,158,4.0,13.0,86,0.00,,,0.00,0.00,VWS V14.00,2013-03-22 03:30:00,
2013-03-21 22:45:00,69.6,65.6,29.68,SSE,158,3.0,7.0,87,0.00,,,0.00,0.00,VWS V14.00,2013-03-22 03:45:00,
2013-03-21 23:00:00,69.7,65.7,29.68,SSE,158,3.0,6.0,87,0.00,,,0.00,0.00,VWS V14.00,2013-03-22 04:00:00,
2013-03-21 23:15:00,69.8,65.8,29.68,SSE,158,3.0,7.0,87,0.00,,,0.00,0.00,VWS V14.00,2013-03-22 04:15:00,
2013-03-21 23:30:00,69.8,65.8,29.68,South,180,3.0,10.0,87,0.00,,,0.00,0.00,VWS V14.00,2013-03-22 04:30:00,
2013-03-21 23:45:00,69.8,66.1,29.67,South,180,3.0,11.0,88,0.00,,,0.00,0.00,VWS V14.00,2013-03-22 04:45:00,